Flag for U.S.A. Weather past 2 weeks in Wailuku, Hawaii, U.S.A.

Now
71 °F

Passing clouds.


Feels Like: 71 °F
Forecast: 69 / 75 °F
Wind: 13 mph from Northeast

Location: Kahului Airport

Current Time: Mar 4, 2015 at 11:16:27 PM

Latest Report: Mar 4, 2015 at 10:54 PM


Visibility: 10 mi

Pressure: 30.01 "Hg

Humidity: 81%

Dew point: 65 °F

Location of WailukuLocation

Historic Weather in Wailuku — Graph

°F

Wailuku temperature yesterday

Maximum temperature yesterday: 81 °F (at 11:54 AM)
Minimum temperature yesterday: 72 °F (at 3:54 AM)
Average temperature yesterday: 76 °F

Past Weeks' High & Low Weather Summary

 TemperatureHumidityPressure
High85 °F (Feb 22, 12:54 PM)94% (Feb 20, 7:34 PM)30.09 "Hg (Feb 20, 7:34 PM)
Low62 °F (Feb 18, 5:54 AM)46% (Feb 25, 11:54 AM)29.86 "Hg (Feb 19, 2:54 PM)
Average74 °F77%29.99 "Hg
* Reported Feb 17 9:54 PM — Mar 4 9:54 PM, Wailuku, Weather by CustomWeather, © 2015

Note: Actual official high and low records may vary slightly from our data, if they occured in-between our weather recording intervals... More about our weather records

Advertising

Wailuku weather history for previous 24 hours

 ConditionsComfort  
Time TempWeatherWind HumidityBarometerVisibility
9:54 PM
Wed, Mar 4
71 °FPassing clouds.13 mph78%30.00 "Hg10 mi
8:54 PM68 °FPassing clouds.No wind87%29.98 "Hg10 mi
7:54 PM69 °FLight rain. Overcast.7 mph87%30.00 "Hg10 mi
6:54 PM70 °FPassing clouds.9 mph76%30.00 "Hg10 mi
5:54 PM70 °FLight rain. Overcast.7 mph84%30.00 "Hg10 mi
4:54 PM71 °FLight rain. More clouds than sun.10 mph78%29.98 "Hg10 mi
3:54 PM72 °FLight rain. More clouds than sun.13 mph68%29.97 "Hg10 mi
2:54 PM72 °FLight rain. More clouds than sun.7 mph84%29.98 "Hg10 mi
1:54 PM71 °FMore clouds than sun.13 mph84%30.01 "Hg10 mi
12:54 PM71 °FLight rain. More clouds than sun.9 mph84%30.03 "Hg10 mi
11:54 AM71 °FLight rain. Scattered clouds.6 mph84%30.03 "Hg9 mi
10:54 AM70 °FLight rain. Scattered clouds.5 mph90%30.04 "Hg10 mi
9:54 AM71 °FRain. Broken clouds.No wind90%30.06 "Hg7 mi
9:33 AM72 °FLight rain. Broken clouds.6 mph83%30.04 "Hg8 mi
8:54 AM71 °FRain. Broken clouds.8 mph90%30.05 "Hg7 mi
8:06 AM70 °FRain. Fog.13 mph88%30.01 "Hg6 mi
7:20 AM70 °FRain. Mostly cloudy.9 mph88%29.98 "Hg7 mi
6:54 AM70 °FRain. Broken clouds.9 mph90%29.99 "Hg2 mi
5:22 AM70 °FRain. Fog.13 mph94%29.97 "Hg5 mi
4:54 AM69 °FLight rain. Fog.8 mph93%29.99 "Hg5 mi
4:43 AM72 °FHeavy rain. Fog.17 mph94%29.96 "Hg2 mi
4:31 AM72 °FHeavy rain. Fog.16 mph94%29.96 "Hg4 mi
4:00 AM72 °FRain. Fog.15 mph94%29.97 "Hg5 mi
3:42 AM72 °FHeavy rain. Fog.13 mph94%29.97 "Hg2 mi
3:34 AM72 °FHeavy rain. Fog.14 mph94%29.96 "Hg3 mi
3:08 AM72 °FHeavy rain. Fog.9 mph94%29.97 "Hg2 mi
2:54 AM72 °FHeavy rain. Fog.14 mph91%29.98 "Hg2 mi
2:36 AM73 °FHeavy rain. Fog.16 mph89%29.97 "Hg3 mi
2:19 AM73 °FOvercast.16 mph89%29.97 "Hg10 mi
1:54 AM73 °FMostly cloudy.14 mph90%30.00 "Hg10 mi
1:29 AM73 °FMostly cloudy.8 mph89%30.00 "Hg10 mi
1:16 AM73 °FMostly cloudy.14 mph89%30.01 "Hg10 mi
1:01 AM73 °FMostly cloudy.13 mph89%30.02 "Hg10 mi
12:23 AM73 °FMostly cloudy.15 mph89%30.02 "Hg10 mi
12:08 AM73 °FPartly cloudy.12 mph89%30.02 "Hg10 mi
11:54 PM
Tue, Mar 3
74 °FPartly cloudy.13 mph88%30.03 "Hg10 mi
11:47 PM73 °FMostly cloudy.12 mph89%30.02 "Hg10 mi
Weather by CustomWeather, © 2015

See weather overviewHow to use our weather pages